Retour au catalogue

THOR ABLESTAR DEB

ActifLEO
NORAD 334·DEBRIS·🇺🇸 United States

Lancé Jun 29, 1961 depuis Cape Canaveral Space Force Station

Loading…

Prochains Passages (prochaines 24 heures)

TLE

FraisSource: Space-Track

Époque: Sep 5, 2026, 09:54 UTC

1 00334U 61015DL  26248.41288897 -.00000038  00000-0  29402-4 0  9995
2 00334  66.9266 348.8052 0074613  40.7456 319.9171 13.91757232307229

Suivez THOR ABLESTAR DEB en temps réel avec AllMySat

Download on the App Store